| time (UTC) | temp F | wind direction | speed knots | gust knots | rain 1hr in | rain 24hr in | rain mn in | humidity % | barometer mb |
| 20260507092703 | 56 | 47 | 1.7 | 5.2 | 0.00 | 0.00 | 0.00 | 70 | 1016.4 |
| 20260507092021 | 54 | 59 | 1.7 | 5.2 | 0.00 | 0.00 | 0.00 | 70 | 1016.5 |
| 20260507090903 | 55 | 75 | 1.7 | 6.1 | 0.00 | 0.00 | 0.00 | 67 | 1016.5 |
| 20260507090004 | 55 | 69 | 1.7 | 6.1 | 0.00 | 0.00 | 0.00 | 68 | 1016.3 |
| 20260507085617 | 54 | 78 | 0.9 | 3.5 | 0.00 | 0.00 | 0.00 | 71 | 1016.4 |
| 20260507084719 | 54 | 111 | 0.9 | 4.3 | 0.00 | 0.00 | 0.00 | 69 | 1016.3 |
| 20260507083603 | 55 | 69 | 1.7 | 8.7 | 0.00 | 0.00 | 0.00 | 68 | 1016.2 |
| 20260507082919 | 56 | 75 | 1.7 | 8.7 | 0.00 | 0.00 | 0.00 | 66 | 1016.1 |
| 20260507081803 | 56 | 66 | 1.7 | 8.7 | 0.00 | 0.00 | 0.00 | 73 | 1015.9 |
| 20260507080903 | 53 | 130 | 0.9 | 4.3 | 0.00 | 0.00 | 0.00 | 71 | 1016.2 |
| 20260507080004 | 52 | 103 | 1.7 | 6.1 | 0.00 | 0.00 | 0.00 | 74 | 1016.2 |
| 20260507075403 | 54 | 84 | 1.7 | 6.1 | 0.00 | 0.00 | 0.00 | 71 | 1016.1 |
| 20260507074503 | 53 | 97 | 1.7 | 6.1 | 0.00 | 0.00 | 0.00 | 72 | 1016.0 |
| 20260507073603 | 52 | 89 | 1.7 | 6.1 | 0.00 | 0.00 | 0.00 | 75 | 1015.9 |
| 20260507072703 | 52 | 63 | 2.6 | 7.8 | 0.00 | 0.00 | 0.00 | 76 | 1015.7 |
| 20260507071803 | 52 | 63 | 2.6 | 7.8 | 0.00 | 0.00 | 0.00 | 77 | 1015.6 |
| 20260507070903 | 51 | 72 | 2.6 | 7.0 | 0.00 | 0.00 | 0.00 | 78 | 1015.6 |
| 20260507070222 | 50 | 79 | 1.7 | 6.1 | 0.00 | 0.00 | 0.00 | 79 | 1015.7 |
| 20260507065403 | 50 | 69 | 2.6 | 5.2 | 0.00 | 0.00 | 0.00 | 80 | 1015.6 |
| 20260507064503 | 49 | 73 | 1.7 | 4.3 | 0.00 | 0.00 | 0.00 | 82 | 1015.7 |
| 20260507063603 | 49 | 59 | 2.6 | 4.3 | 0.00 | 0.00 | 0.00 | 83 | 1015.6 |
| 20260507062703 | 48 | 61 | 1.7 | 3.5 | 0.00 | 0.00 | 0.00 | 83 | 1015.5 |
| 20260507062017 | 48 | 61 | 0.9 | 3.5 | 0.00 | 0.00 | 0.00 | 84 | 1015.4 |
| 20260507060903 | 48 | 60 | 0.9 | 2.6 | 0.00 | 0.00 | 0.00 | 85 | 1015.6 |
| 20260507060003 | 47 | 55 | 0.0 | 2.6 | 0.00 | 0.00 | 0.00 | 86 | 1015.5 |
| 20260507055403 | 47 | 46 | 0.9 | 2.6 | 0.00 | 0.00 | 0.00 | 86 | 1015.4 |
| 20260507054721 | 46 | 46 | 0.0 | 2.6 | 0.00 | 0.00 | 0.00 | 86 | 1015.3 |
| 20260507053603 | 46 | 0 | 0.0 | 0.0 | 0.00 | 0.00 | 0.00 | 86 | 1015.1 |
| 20260507052703 | 46 | 0 | 0.0 | 0.0 | 0.00 | 0.00 | 0.00 | 86 | 1015.0 |
| 20260507051803 | 46 | 0 | 0.0 | 0.0 | 0.00 | 0.00 | 0.00 | 87 | 1015.0 |
| 20260507051120 | 45 | 0 | 0.0 | 0.0 | 0.00 | 0.00 | 0.00 | 87 | 1015.0 |
| 20260507050003 | 45 | 0 | 0.0 | 0.0 | 0.00 | 0.00 | 0.00 | 87 | 1015.0 |
| 20260507045403 | 45 | 0 | 0.0 | 0.0 | 0.00 | 0.00 | 0.00 | 87 | 1015.0 |
| 20260507044717 | 45 | 0 | 0.0 | 0.0 | 0.00 | 0.00 | 0.00 | 87 | 1014.9 |
| 20260507043819 | 45 | 0 | 0.0 | 0.0 | 0.00 | 0.00 | 0.00 | 86 | 1014.9 |
| 20260507042703 | 45 | 0 | 0.0 | 0.0 | 0.00 | 0.00 | 0.00 | 86 | 1014.9 |
| 20260507041803 | 45 | 0 | 0.0 | 0.0 | 0.00 | 0.00 | 0.00 | 86 | 1014.9 |
| 20260507040903 | 45 | 0 | 0.0 | 0.0 | 0.00 | 0.00 | 0.00 | 86 | 1014.9 |
| 20260507040004 | 45 | 0 | 0.0 | 0.0 | 0.00 | 0.00 | 0.00 | 86 | 1014.8 |
| 20260507035403 | 45 | 0 | 0.0 | 0.0 | 0.00 | 0.00 | 0.00 | 86 | 1014.8 |
| 20260507034503 | 45 | 0 | 0.0 | 0.0 | 0.00 | 0.00 | 0.00 | 86 | 1014.8 |
| 20260507033603 | 45 | 0 | 0.0 | 0.0 | 0.00 | 0.00 | 0.00 | 86 | 1014.8 |
| 20260507032917 | 46 | 0 | 0.0 | 0.0 | 0.00 | 0.00 | 0.00 | 86 | 1014.7 |
| 20260507031803 | 46 | 0 | 0.0 | 0.0 | 0.00 | 0.00 | 0.00 | 86 | 1014.7 |
| 20260507030903 | 46 | 0 | 0.0 | 0.0 | 0.00 | 0.00 | 0.00 | 86 | 1014.8 |
| 20260507030003 | 46 | 0 | 0.0 | 0.0 | 0.00 | 0.00 | 0.00 | 86 | 1014.8 |
| 20260507025403 | 46 | 0 | 0.0 | 0.0 | 0.00 | 0.00 | 0.00 | 86 | 1014.7 |
| 20260507024503 | 46 | 0 | 0.0 | 0.0 | 0.00 | 0.00 | 0.00 | 85 | 1014.8 |
| 20260507023603 | 46 | 0 | 0.0 | 0.0 | 0.00 | 0.00 | 0.00 | 85 | 1014.6 |
| 20260507022703 | 46 | 0 | 0.0 | 0.0 | 0.00 | 0.00 | 0.00 | 85 | 1014.7 |
| 20260507022020 | 46 | 0 | 0.0 | 0.0 | 0.00 | 0.00 | 0.00 | 85 | 1014.7 |
| 20260507020903 | 46 | 0 | 0.0 | 0.0 | 0.00 | 0.00 | 0.00 | 85 | 1014.7 |
| 20260507020004 | 46 | 0 | 0.0 | 0.0 | 0.00 | 0.00 | 0.00 | 85 | 1014.6 |
| 20260507015403 | 46 | 0 | 0.0 | 0.0 | 0.00 | 0.00 | 0.00 | 85 | 1014.5 |
| 20260507014719 | 46 | 0 | 0.0 | 0.0 | 0.00 | 0.00 | 0.00 | 85 | 1014.4 |
| 20260507013603 | 46 | 0 | 0.0 | 1.7 | 0.00 | 0.00 | 0.00 | 85 | 1014.3 |
| 20260507012703 | 46 | 46 | 0.9 | 1.7 | 0.00 | 0.00 | 0.00 | 84 | 1014.3 |
| 20260507012021 | 46 | 46 | 0.9 | 1.7 | 0.00 | 0.00 | 0.00 | 84 | 1014.3 |
| 20260507010903 | 46 | 46 | 0.9 | 1.7 | 0.00 | 0.00 | 0.00 | 84 | 1014.4 |
| 20260507010003 | 46 | 46 | 0.9 | 2.6 | 0.00 | 0.00 | 0.00 | 84 | 1014.5 |
| 20260507005403 | 46 | 46 | 0.9 | 2.6 | 0.00 | 0.00 | 0.00 | 84 | 1014.4 |
| 20260507004503 | 47 | 46 | 0.9 | 2.6 | 0.00 | 0.00 | 0.00 | 84 | 1014.4 |
| 20260507003603 | 47 | 46 | 0.0 | 2.6 | 0.00 | 0.00 | 0.00 | 83 | 1014.4 |
| 20260507002703 | 47 | 46 | 0.0 | 3.5 | 0.00 | 0.00 | 0.00 | 83 | 1014.5 |
| 20260507002021 | 47 | 46 | 0.9 | 3.5 | 0.00 | 0.00 | 0.00 | 83 | 1014.6 |
| 20260507000903 | 47 | 42 | 1.7 | 3.5 | 0.00 | 0.00 | 0.00 | 83 | 1014.7 |
| 20260507000004 | 47 | 39 | 1.7 | 3.5 | 0.00 | 0.00 | 0.00 | 83 | 1014.6 |
| 20260506235403 | 47 | 40 | 0.9 | 2.6 | 0.00 | 0.00 | 0.00 | 83 | 1014.7 |
| 20260506234504 | 47 | 45 | 1.7 | 4.3 | 0.00 | 0.00 | 0.00 | 83 | 1014.6 |
| 20260506233603 | 47 | 60 | 1.7 | 4.3 | 0.00 | 0.00 | 0.00 | 83 | 1014.5 |
| 20260506232703 | 48 | 55 | 1.7 | 4.3 | 0.00 | 0.00 | 0.00 | 82 | 1014.5 |
| 20260506231803 | 48 | 58 | 2.6 | 5.2 | 0.00 | 0.00 | 0.00 | 82 | 1014.4 |
| 20260506230903 | 48 | 60 | 2.6 | 7.0 | 0.00 | 0.00 | 0.00 | 82 | 1014.5 |
| 20260506230011 | 48 | 56 | 3.5 | 7.0 | 0.00 | 0.00 | 0.00 | 82 | 1014.4 |
| 20260506225403 | 48 | 53 | 3.5 | 7.0 | 0.00 | 0.00 | 0.00 | 82 | 1014.4 |
| 20260506224721 | 48 | 51 | 3.5 | 7.0 | 0.00 | 0.00 | 0.00 | 82 | 1014.5 |
| 20260506223603 | 48 | 40 | 3.5 | 7.0 | 0.00 | 0.00 | 0.00 | 82 | 1014.5 |
| 20260506222703 | 49 | 50 | 2.6 | 7.0 | 0.00 | 0.00 | 0.00 | 82 | 1014.4 |
| 20260506222018 | 49 | 56 | 3.5 | 7.0 | 0.00 | 0.00 | 0.00 | 82 | 1014.3 |
| 20260506220903 | 49 | 50 | 2.6 | 7.0 | 0.00 | 0.00 | 0.00 | 82 | 1014.2 |
| 20260506220004 | 49 | 67 | 0.9 | 3.5 | 0.00 | 0.00 | 0.00 | 83 | 1014.2 |
| 20260506215403 | 49 | 67 | 0.9 | 3.5 | 0.00 | 0.00 | 0.00 | 83 | 1014.1 |
| 20260506214503 | 49 | 73 | 0.9 | 7.8 | 0.00 | 0.00 | 0.00 | 82 | 1014.1 |
| 20260506213603 | 49 | 66 | 2.6 | 7.8 | 0.00 | 0.00 | 0.00 | 82 | 1014.0 |
| 20260506212703 | 49 | 62 | 3.5 | 7.8 | 0.00 | 0.00 | 0.00 | 83 | 1014.0 |
| 20260506211803 | 49 | 57 | 3.5 | 8.7 | 0.00 | 0.00 | 0.00 | 83 | 1013.9 |
| 20260506210903 | 49 | 54 | 4.3 | 8.7 | 0.00 | 0.00 | 0.00 | 84 | 1013.8 |
| 20260506210004 | 50 | 43 | 3.5 | 8.7 | 0.00 | 0.00 | 0.00 | 84 | 1013.8 |
| 20260506205403 | 50 | 40 | 4.3 | 8.7 | 0.00 | 0.00 | 0.00 | 84 | 1013.8 |
| 20260506204717 | 50 | 35 | 4.3 | 8.7 | 0.00 | 0.00 | 0.00 | 84 | 1013.8 |
| 20260506203603 | 50 | 49 | 0.9 | 5.2 | 0.00 | 0.00 | 0.00 | 84 | 1013.7 |
| 20260506202703 | 50 | 40 | 0.0 | 2.6 | 0.00 | 0.00 | 0.00 | 83 | 1013.7 |
| 20260506201803 | 50 | 40 | 0.0 | 2.6 | 0.00 | 0.00 | 0.00 | 82 | 1013.7 |
| 20260506201121 | 50 | 40 | 0.0 | 1.7 | 0.00 | 0.00 | 0.00 | 82 | 1013.7 |
| 20260506200004 | 50 | 40 | 0.9 | 3.5 | 0.00 | 0.00 | 0.00 | 80 | 1013.7 |
| 20260506195403 | 50 | 40 | 0.9 | 3.5 | 0.00 | 0.00 | 0.00 | 80 | 1013.6 |
| 20260506194503 | 50 | 38 | 1.7 | 3.5 | 0.00 | 0.00 | 0.00 | 79 | 1013.5 |
| 20260506193603 | 50 | 33 | 1.7 | 3.5 | 0.00 | 0.00 | 0.00 | 79 | 1013.4 |
| 20260506192917 | 51 | 34 | 1.7 | 4.3 | 0.00 | 0.00 | 0.00 | 78 | 1013.3 |
| 20260506191803 | 51 | 43 | 2.6 | 4.3 | 0.00 | 0.00 | 0.00 | 77 | 1013.3 |
| 20260506190903 | 51 | 41 | 2.6 | 5.2 | 0.00 | 0.00 | 0.00 | 76 | 1013.3 |
| 20260506190004 | 51 | 37 | 2.6 | 5.2 | 0.00 | 0.00 | 0.00 | 76 | 1013.2 |
| 20260506185403 | 52 | 38 | 2.6 | 5.2 | 0.00 | 0.00 | 0.00 | 75 | 1013.2 |
| 20260506184503 | 52 | 35 | 2.6 | 7.8 | 0.00 | 0.00 | 0.00 | 75 | 1013.1 |
| 20260506183820 | 52 | 36 | 3.5 | 7.8 | 0.00 | 0.00 | 0.00 | 75 | 1013.1 |
| 20260506182703 | 53 | 38 | 3.5 | 7.8 | 0.00 | 0.00 | 0.00 | 75 | 1013.0 |
| 20260506181803 | 53 | 33 | 4.3 | 7.8 | 0.00 | 0.00 | 0.00 | 73 | 1012.9 |
| 20260506180903 | 54 | 20 | 4.3 | 8.7 | 0.00 | 0.00 | 0.00 | 70 | 1012.7 |
| 20260506180004 | 54 | 9 | 4.3 | 8.7 | 0.00 | 0.00 | 0.00 | 70 | 1012.7 |
| 20260506175403 | 55 | 2 | 5.2 | 8.7 | 0.00 | 0.00 | 0.00 | 70 | 1012.5 |
| 20260506174503 | 55 | 350 | 4.3 | 8.7 | 0.00 | 0.00 | 0.00 | 70 | 1012.4 |
| 20260506173603 | 55 | 338 | 5.2 | 8.7 | 0.00 | 0.00 | 0.00 | 68 | 1012.3 |
| 20260506172703 | 56 | 352 | 5.2 | 8.7 | 0.00 | 0.00 | 0.00 | 68 | 1012.3 |
| 20260506171803 | 55 | 4 | 5.2 | 8.7 | 0.00 | 0.00 | 0.00 | 69 | 1012.4 |
| 20260506170903 | 56 | 357 | 4.3 | 8.7 | 0.00 | 0.00 | 0.00 | 69 | 1012.2 |
| 20260506170004 | 56 | 8 | 5.2 | 8.7 | 0.00 | 0.00 | 0.00 | 67 | 1012.3 |
| 20260506165403 | 56 | 353 | 5.2 | 8.7 | 0.00 | 0.00 | 0.00 | 68 | 1012.3 |
| 20260506164503 | 56 | 348 | 5.2 | 8.7 | 0.00 | 0.00 | 0.00 | 69 | 1012.3 |
| 20260506163603 | 55 | 334 | 5.2 | 9.6 | 0.00 | 0.00 | 0.00 | 68 | 1012.3 |
| 20260506162703 | 55 | 328 | 6.1 | 9.6 | 0.00 | 0.00 | 0.00 | 69 | 1012.4 |
| 20260506161803 | 55 | 351 | 5.2 | 9.6 | 0.00 | 0.00 | 0.00 | 69 | 1012.4 |
| 20260506160903 | 54 | 6 | 5.2 | 9.6 | 0.00 | 0.00 | 0.00 | 70 | 1012.4 |
| 20260506160221 | 55 | 358 | 5.2 | 10.4 | 0.00 | 0.00 | 0.00 | 70 | 1012.4 |
| 20260506155618 | 55 | 350 | 6.1 | 10.4 | 0.00 | 0.00 | 0.00 | 70 | 1012.4 |
| 20260506154503 | 54 | 4 | 6.1 | 10.4 | 0.00 | 0.00 | 0.00 | 69 | 1012.5 |
| 20260506153603 | 54 | 8 | 6.1 | 11.3 | 0.00 | 0.00 | 0.00 | 69 | 1012.4 |
| 20260506152703 | 54 | 25 | 6.1 | 11.3 | 0.00 | 0.00 | 0.00 | 68 | 1012.4 |
| 20260506151803 | 55 | 16 | 6.1 | 12.2 | 0.00 | 0.00 | 0.00 | 67 | 1012.5 |
| 20260506150903 | 55 | 4 | 6.1 | 12.2 | 0.00 | 0.00 | 0.00 | 68 | 1012.3 |
| 20260506150004 | 54 | 17 | 7.8 | 12.2 | 0.00 | 0.00 | 0.00 | 68 | 1012.3 |
| 20260506145403 | 55 | 16 | 7.0 | 12.2 | 0.00 | 0.00 | 0.00 | 69 | 1012.3 |
| 20260506144503 | 55 | 22 | 7.8 | 12.2 | 0.00 | 0.00 | 0.00 | 68 | 1012.1 |
| 20260506143603 | 56 | 23 | 7.8 | 13.0 | 0.00 | 0.00 | 0.00 | 68 | 1012.1 |
| 20260506142703 | 56 | 18 | 7.8 | 13.0 | 0.00 | 0.00 | 0.00 | 66 | 1012.1 |
| 20260506141803 | 56 | 20 | 7.8 | 13.0 | 0.00 | 0.00 | 0.00 | 66 | 1012.1 |
| 20260506140903 | 55 | 15 | 8.7 | 13.0 | 0.00 | 0.00 | 0.00 | 67 | 1012.1 |
| 20260506140004 | 56 | 359 | 8.7 | 13.0 | 0.00 | 0.00 | 0.00 | 67 | 1012.0 |
| 20260506135403 | 56 | 10 | 8.7 | 13.0 | 0.00 | 0.00 | 0.00 | 66 | 1012.1 |
| 20260506134503 | 56 | 15 | 8.7 | 13.0 | 0.00 | 0.00 | 0.00 | 66 | 1012.1 |
| 20260506133818 | 56 | 357 | 8.7 | 13.0 | 0.00 | 0.00 | 0.00 | 66 | 1012.2 |
| 20260506132703 | 56 | 357 | 7.8 | 13.0 | 0.00 | 0.00 | 0.00 | 65 | 1012.1 |
| 20260506131803 | 55 | 23 | 7.0 | 12.2 | 0.00 | 0.00 | 0.00 | 67 | 1012.1 |
| 20260506130903 | 55 | 19 | 7.0 | 13.0 | 0.00 | 0.00 | 0.00 | 66 | 1012.2 |
| 20260506130218 | 56 | 5 | 7.8 | 13.0 | 0.00 | 0.00 | 0.00 | 64 | 1012.1 |
| 20260506125403 | 56 | 348 | 7.8 | 12.2 | 0.00 | 0.00 | 0.00 | 62 | 1012.1 |
| 20260506124503 | 56 | 357 | 7.0 | 12.2 | 0.00 | 0.00 | 0.00 | 63 | 1012.0 |
| 20260506123603 | 57 | 345 | 7.0 | 12.2 | 0.00 | 0.00 | 0.00 | 63 | 1012.0 |
| 20260506122703 | 57 | 336 | 7.8 | 12.2 | 0.00 | 0.00 | 0.00 | 63 | 1012.0 |
| 20260506121803 | 58 | 349 | 8.7 | 12.2 | 0.00 | 0.00 | 0.00 | 62 | 1012.0 |
| 20260506120903 | 59 | 328 | 7.8 | 12.2 | 0.00 | 0.00 | 0.00 | 62 | 1011.9 |
| 20260506120219 | 60 | 325 | 7.8 | 13.0 | 0.00 | 0.00 | 0.00 | 61 | 1012.0 |
| 20260506115403 | 60 | 331 | 7.8 | 13.0 | 0.00 | 0.00 | 0.00 | 61 | 1012.0 |
| 20260506114503 | 60 | 334 | 8.7 | 13.9 | 0.00 | 0.00 | 0.00 | 66 | 1011.9 |
| 20260506113603 | 60 | 331 | 7.8 | 13.9 | 0.00 | 0.00 | 0.00 | 68 | 1011.9 |
| 20260506112703 | 58 | 320 | 7.0 | 12.2 | 0.00 | 0.00 | 0.00 | 74 | 1012.1 |
| 20260506111803 | 55 | 333 | 5.2 | 9.6 | 0.00 | 0.00 | 0.00 | 84 | 1012.2 |
| 20260506110903 | 53 | 338 | 6.1 | 11.3 | 0.00 | 0.00 | 0.00 | 84 | 1012.1 |
| 20260506110004 | 52 | 341 | 7.8 | 13.9 | 0.00 | 0.00 | 0.00 | 82 | 1012.2 |
| 20260506105403 | 52 | 331 | 8.7 | 13.9 | 0.00 | 0.00 | 0.00 | 80 | 1012.3 |
| 20260506104503 | 53 | 315 | 8.7 | 13.9 | 0.00 | 0.00 | 0.00 | 79 | 1012.0 |
| 20260506103603 | 52 | 321 | 7.8 | 13.0 | 0.00 | 0.00 | 0.00 | 82 | 1011.9 |
| 20260506102703 | 52 | 313 | 8.7 | 13.0 | 0.00 | 0.00 | 0.00 | 80 | 1012.1 |
| 20260506101803 | 54 | 335 | 8.7 | 13.9 | 0.00 | 0.00 | 0.00 | 75 | 1012.1 |
| 20260506100903 | 57 | 328 | 9.6 | 13.9 | 0.00 | 0.00 | 0.00 | 67 | 1011.9 |
| 20260506100004 | 57 | 326 | 9.6 | 13.0 | 0.00 | 0.00 | 0.00 | 67 | 1011.9 |
| 20260506095403 | 57 | 324 | 9.6 | 16.5 | 0.00 | 0.00 | 0.00 | 68 | 1012.1 |
| 20260506094503 | 56 | 343 | 9.6 | 16.5 | 0.00 | 0.00 | 0.00 | 72 | 1012.1 |
| 20260506093821 | 55 | 346 | 9.6 | 16.5 | 0.00 | 0.00 | 0.00 | 74 | 1012.1 |